This is the latest recevied weather packets stored in our database for station/object W3AJR. If no packets are shown the sender has not sent any weather packets the latest 10 day(s).
| Time | Temp. | Humidity | Pressure | Rain* | Wind** | Luminosity | Snow |
|---|---|---|---|---|---|---|---|
| 1778212060 | 8.89° C | 99% | 1011.5 hPa | 0 mm | - | 0 W/m² | - |
| 1778211758 | 8.33° C | 99% | 1011.5 hPa | 0 mm | - | 0 W/m² | - |
| 1778211455 | 7.78° C | 98% | 1011.4 hPa | 0 mm | - | 0 W/m² | - |
| 1778211153 | 7.78° C | 98% | 1011.5 hPa | 0 mm | - | 0 W/m² | - |
| 1778210850 | 7.78° C | 98% | 1011.2 hPa | 0 mm | - | 0 W/m² | - |
| 1778210547 | 7.78° C | 98% | 1011.5 hPa | 0 mm | - | 0 W/m² | - |
| 1778210244 | 8.33° C | 98% | 1011.4 hPa | 0 mm | - | 0 W/m² | - |
| 1778209940 | 8.33° C | 98% | 1011.4 hPa | 0 mm | - | 0 W/m² | - |
| 1778209636 | 8.33° C | 97% | 1011.2 hPa | 0 mm | - | 0 W/m² | - |
| 1778209334 | 8.33° C | 97% | 1011.2 hPa | 0 mm | - | 0 W/m² | - |
| 1778209030 | 8.89° C | 97% | 1011.2 hPa | 0 mm | - | 0 W/m² | - |
| 1778208728 | 8.33° C | 96% | 1011.3 hPa | 0 mm | - | 0 W/m² | - |
| 1778208423 | 8.89° C | 96% | 1011.2 hPa | 0 mm | - | 0 W/m² | - |
| 1778208121 | 8.89° C | 96% | 1011.3 hPa | 0 mm | - | 0 W/m² | - |
| 1778207816 | 9.44° C | 96% | 1011.3 hPa | 0 mm | - | 0 W/m² | - |
| 1778207515 | 9.44° C | 96% | 1011.3 hPa | 0 mm | - | 0 W/m² | - |
| 1778207210 | 9.44° C | 95% | 1011.4 hPa | 0 mm | - | 0 W/m² | - |
| 1778206907 | 9.44° C | 95% | 1011.2 hPa | 0 mm | - | 0 W/m² | - |
| 1778206603 | 9.44° C | 94% | 1011 hPa | 0 mm | - | 0 W/m² | - |
| 1778206299 | 9.44° C | 93% | 1011.1 hPa | 0 mm | - | 0 W/m² | - |
| 1778205997 | 9.44° C | 92% | 1010.9 hPa | 0 mm | - | 0 W/m² | - |
| 1778205694 | 9.44° C | 92% | 1011.1 hPa | 0 mm | - | 0 W/m² | - |
| 1778205392 | 10° C | 91% | 1010.9 hPa | 0 mm | - | 0 W/m² | - |
| 1778205088 | 10° C | 91% | 1011 hPa | 0 mm | - | 0 W/m² | - |
| 1778204785 | 10° C | 90% | 1010.8 hPa | 0 mm | - | 0 W/m² | - |
* Rain latest hour (hover to see other rain measurements)
** Current wind speed in m/s (hover to see current wind gust speed)